Weather History for KGAG - March, 2013

Change the Weather History Date:

Sunday, March 31, 2013

  Actual Average Record
Temperature  
Mean Temperature 58 °F -  
Max Temperature 71 °F 64 °F 91 °F (1978)
Min Temperature 46 °F 35 °F 15 °F (1987)
Degree Days  
Heating Degree Days 7    
Growing Degree Days 8 (Base 50)    
Moisture  
Dew Point 38 °F    
Average Humidity 58    
Maximum Humidity 93    
Minimum Humidity 21    
Precipitation  
Precipitation 0.02 in - - ()
Sea Level Pressure  
Sea Level Pressure 30.00 in    
Wind  
Wind Speed 11 mph (NNE)    
Max Wind Speed 29 mph    
Max Gust Speed 44 mph    
Visibility 10 miles    
Events Rain    
Averages and records for this station are not official NWS values.
T = Trace of Precipitation, MM = Missing Value Source: NWS Daily Summary

Daily Weather History Graph

Daily Weather History Graph

Search for Another Location

Airport or City:

Trip Planner

Search our weather history database for the weather conditions in past years. The results will help you decide how hot, cold, wet, or windy it might be!

Date:

Astronomy

Mar. 31, 2013 Rise Set
Actual Time 7:26 AM CDT 8:00 PM CDT
Civil Twilight 7:00 AM CDT 8:26 PM CDT
Nautical Twilight 6:29 AM CDT 8:57 PM CDT
Astronomical Twilight 5:58 AM CDT 9:28 PM CDT
Moon 12:00 AM CDT (3/31) 10:23 AM CDT (3/31)
Length of Visible Light 13h 26m
Length of Day
12h 34m
Waning Gibbous, 77% of the Moon is Illuminated
Mar 31
Waning Gibbous
Apr 2
Last Quarter
Apr 10
New
Apr 18
First Quarter
Apr 25
Full

Hourly Weather History & Observations

Time (CDT) Temp. Dew Point Humidity Pressure Visibility Wind Dir Wind Speed Gust Speed Precip Events Conditions
12:53 AM 57.0 °F 46.9 °F 69% 29.94 in 10.0 mi NE 13.8 mph - 0.00 in Rain Light Rain
1:53 AM 53.1 °F 48.9 °F 86% 30.01 in 10.0 mi North 28.8 mph 43.7 mph 0.00 in Rain Light Rain
2:53 AM 51.1 °F 46.9 °F 86% 30.02 in 10.0 mi NNE 21.9 mph 28.8 mph 0.02 in Rain Light Rain
3:53 AM 48.9 °F 46.9 °F 93% 30.02 in 10.0 mi NNE 8.1 mph - 0.00 in   Mostly Cloudy
4:53 AM 50.0 °F 46.0 °F 86% 30.00 in 10.0 mi Calm Calm - N/A   Scattered Clouds
5:53 AM 50.0 °F 46.0 °F 86% 30.00 in 10.0 mi NW 3.5 mph - N/A   Partly Cloudy
6:53 AM 48.9 °F 46.0 °F 90% 30.02 in 10.0 mi Calm Calm - N/A   Partly Cloudy
7:53 AM 46.9 °F 45.0 °F 93% 30.08 in 10.0 mi NNW 4.6 mph - N/A   Clear
8:53 AM 50.0 °F 46.9 °F 89% 30.07 in 10.0 mi North 9.2 mph - N/A   Clear
9:53 AM 54.0 °F 45.0 °F 72% 30.06 in 10.0 mi NNE 12.7 mph - N/A   Clear
10:53 AM 57.0 °F 44.1 °F 62% 30.07 in 10.0 mi North 15.0 mph - N/A   Clear
11:53 AM 60.1 °F 42.1 °F 51% 30.06 in 10.0 mi NNE 13.8 mph 20.7 mph N/A   Clear
12:53 PM 63.0 °F 36.0 °F 37% 30.04 in 10.0 mi North 15.0 mph 19.6 mph N/A   Clear
1:53 PM 66.0 °F 36.0 °F 33% 30.02 in 10.0 mi North 16.1 mph 19.6 mph N/A   Clear
2:53 PM 68.0 °F 30.9 °F 25% 30.01 in 10.0 mi North 9.2 mph - N/A   Clear
3:53 PM 69.1 °F 30.0 °F 23% 29.99 in 10.0 mi Variable 5.8 mph - N/A   Clear
4:53 PM 70.0 °F 28.9 °F 22% 29.96 in 10.0 mi NE 5.8 mph - N/A   Clear
5:53 PM 68.0 °F 26.1 °F 21% 29.95 in 10.0 mi Variable 3.5 mph - N/A   Clear
6:53 PM 66.9 °F 26.1 °F 21% 29.94 in 10.0 mi SSW 3.5 mph - N/A   Clear
7:53 PM 64.0 °F 27.0 °F 25% 29.94 in 10.0 mi Calm Calm - N/A   Clear
8:53 PM 52.0 °F 32.0 °F 47% 29.96 in 10.0 mi SSE 3.5 mph - N/A   Clear
9:53 PM 48.0 °F 30.9 °F 52% 29.98 in 10.0 mi South 5.8 mph - N/A   Clear
10:53 PM 46.9 °F 32.0 °F 56% 29.98 in 10.0 mi South 3.5 mph - N/A   Clear
11:53 PM 48.0 °F 35.1 °F 61% 29.97 in 10.0 mi SSE 8.1 mph - N/A   Clear